星链-2739 (STARLINK-2739 )

导读 | 豆包AI

STARLINK-2739是美国太空探索技术公司(SpaceX)旗下星链(Starlink)低轨卫星互联网星座的组网卫星,于北京时间2021年5月26日由猎鹰九号火箭发射升空。该卫星运行于近地轨道,是星链全球宽带互联网组网建设的组成部分,旨在为全球偏远、欠发达地区提供高速可靠的互联网接入服务,目前仍在轨正常工作。

基本信息
目录编号:
48639
目录名称:
STARLINK-2739
国际标识:
2021-044B
轨道中心:
EARTH
卫星名称:
星链-2739
卫星全名:
星链-2739 (STARLINK-2739 )
卫星状态:
在轨 (已飞行1753 天)
发射日期:
2021-05-26 UTC
国别 :
美国 (US)
星等 :
--
轨道信息
数据来源 国际轨道数据
星历时间: 2026-03-14T15:57:48+0800
8小时前
查看轨道信息
半长轴: 6853.295km
偏心率: 0.0001344
轨道倾角: 53.158°
近地点辐角 94.596°
升交点赤经 92.288°
平近点角 265.519°
近地点: 474.236km
远地点: 476.08km
周期: 94.104分钟
每日圈数: 15.302194
详细信息
固有亮度:
5
最大亮度:
2.5
卫星平台:
Starlink V1.0
覆盖范围:
全球
运营商:
太空探索技术公司
运营商所在国:
美国
制造商(研发单位):
太空探索技术公司
制造商所在国:
美国
使用方式:
暂无
卫星简介
星链(Starlink)计划是由太空探索技术公司(SpaceX)提出的一个巨型低轨卫星互联网星座项目,计划在2019年至2024年间在太空搭建由约1.2万颗卫星组成的“星链”网络,其中1584颗将部署在地球上空550千米处的近地轨道,并从2020年开始工作。该卫星仍在工作。
2D轨道图
3D轨道图
轨道高度分析图
轨道倾角分析图
轨道综合分析图
查看轨道综合分析图